Back to catalog

HULIANWANG DIGUI-66

AliveCommunicationsPO
NORAD 65172·PAYLOAD·🇨🇳 China

Launched Aug 13, 2025 from Wenchang Space Launch Site

Loading…

Next Passes (next 24 hours)

TLE

FreshSource: Space-Track

Epoch: Sep 14, 2026, 14:49 UTC

1 65172U 25174J   26257.61777622  .00000053  00000-0  90339-4 0  9996
2 65172  86.4931 221.6788 0002257  78.9297 281.2091 13.24399418 52628

Track HULIANWANG DIGUI-66 in real time with AllMySat

Download on the App Store